Weather observations for the past three days for
Fairbanks, Eielson Air Force Base
Imperial (Metric)
Date Time (akdt) Wind (mph) Vis. (mi.) Weather Sky Cond. Temperature (ºF) Relative Humidity Wind Chill (°F) Heat Index (°F) Pressure Precipitation (in)
Air Dwpt 6 hour altimeter (in) sea level (mb) 1 hr 3 hr 6 hr
Max. Min.
15 02:55 Calm 10.00 Mostly Cloudy BKN080 49.3 47.3 93% 29.61 1003.1
15 01:55 E 6 10.00 Mostly Cloudy BKN090 48.6 46.9 94% 47 29.58 1002.1
15 00:55 E 3 10.00 Partly Cloudy SCT120 50 47.8 92% 29.56 1001.4
14 23:55 E 3 10.00 Mostly Cloudy BKN110 52.2 49.8 92% 29.54 1000.7
14 22:55 Calm 10.00 Mostly Cloudy BKN100 55.6 52.2 88% 29.52 1000.0
14 21:55 E 5 10.00 Mostly Cloudy FEW095 FEW120 BKN150 54.5 51.3 65.3 53.6 89% 29.5 999.3 0.07 0.16
14 20:55 SW 7 5.00 Light Rain Fog/Mist FEW005 FEW019 SCT030 BKN042 OVC060 55.6 51.8 87% 29.52 1000.0 0.09
14 19:55 W 6 10.00 Light Drizzle BKN065 OVC075 61.2 54 77% 29.48 998.6
14 18:55 NW 8 10.00 Overcast OVC090 63.1 52.9 69% 29.44 997.2
14 17:55 N 9 10.00 Mostly Cloudy FEW019 BKN100 64.8 54 68% 29.45 997.5
14 16:55 N 7 10.00 Overcast FEW090 BKN110 OVC130 62.4 54 74% 29.45 997.6
14 15:55 N 7 10.00 Overcast FEW011 OVC085 60.4 54.5 60.6 55.4 81% 29.46 997.9 0.08
14 14:55 Calm 10.00 Overcast OVC035 59.5 54 82% 29.47 998.2
14 13:55 Calm 10.00 Overcast SCT011 OVC035 58.5 53.6 84% 29.46 997.9
14 12:55 N 3 10.00 Overcast BKN010 OVC041 57.9 54.7 89% 29.46 997.9 0.08
14 11:55 E 5 10.00 Light Rain Fog/Mist FEW007 SCT050 OVC070 57 53.2 87% 29.45 997.5 0.06
14 10:55 SE 3 10.00 Light Rain Fog/Mist SCT005 OVC036 56.3 54 92% 29.44 997.2 0.02
14 09:55 NE 5 10.00 Light Drizzle SCT005 OVC050 55.2 53.2 57.4 54.5 93% 29.43 996.8 0.02 0.1
14 08:55 NE 3 10.00 Overcast BKN065 OVC085 55.9 54 93% 29.42 996.5
14 07:55 E 3 10.00 Overcast OVC090 56.5 54.7 94% 29.41 996.1 0.01
14 06:56 Calm 7.00 Light Rain SCT070 OVC090 55.4 53.6 94% 29.4 995.8
14 05:56 Calm 10.00 Light Rain OVC085 57.2 55.4 94% 29.36 994.4
14 04:55 Calm 10.00 Light Rain SCT095 BKN120 OVC150 55.4 53.4 93% 29.35 994.1
14 03:55 Calm 10.00 Overcast OVC110 56.1 53.6 68.7 55.8 91% 29.33 993.4 0.01 0.02
14 02:57 Calm 10.00 Light Rain OVC095 58.8 54.3 85% 29.31 992.7 0.01
14 01:56 Calm 10.00 Overcast FEW095 BKN120 OVC140 59.4 52.2 77% 29.31 992.7
14 00:56 Calm 10.00 Overcast OVC110 63 48.9 60% 29.29 992.0
13 23:55 Calm 10.00 Overcast OVC120 64.9 47.8 54% 29.29 992.0
13 22:55 E 8 10.00 Overcast OVC110 67.1 46.8 48% 29.31 992.7
13 21:55 NE 6 10.00 Overcast BKN130 OVC150 68.7 47.7 72.7 68.5 47% 29.31 992.7
13 20:55 NE 5 10.00 Overcast BKN170 OVC190 69.6 46.8 44% 29.33 993.3
13 19:55 E 10 10.00 Mostly Cloudy BKN190 BKN210 70.9 45.3 40% 29.36 994.4
13 18:55 E 10 10.00 Overcast FEW090 BKN180 OVC200 71.8 44.8 38% 29.38 995.1
13 17:55 SE 15 10.00 Overcast FEW075 SCT090 OVC110 71.1 44.8 39% 29.41 996.1
13 16:55 E 13 10.00 Overcast BKN100 BKN130 OVC190 72.3 43.9 36% 29.43 996.8
13 15:55 E 16 10.00 Mostly Cloudy BKN110 71.6 41.7 73.8 63 34% 29.46 997.8
13 14:55 E 15 G 22 10.00 Overcast OVC110 71.8 41.9 34% 29.49 998.8
13 13:55 E 9 10.00 Overcast OVC100 68.5 43.2 40% 29.53 1000.2
13 12:55 E 9 10.00 Overcast BKN100 BKN120 OVC140 67.5 43 41% 29.55 1000.9
13 11:55 N 6 10.00 Overcast OVC090 66.4 45 46% 29.57 1001.5
13 10:55 N 9 10.00 Mostly Cloudy FEW120 BKN180 65.3 45.1 48% 29.59 1002.2
13 09:55 N 6 10.00 Overcast SCT100 OVC130 62.8 43.3 63 52.7 49% 29.61 1002.9
13 08:55 N 8 10.00 Overcast OVC160 61 46.9 60% 29.62 1003.2
13 07:55 NW 8 10.00 Mostly Cloudy BKN120 BKN220 57.7 47.3 68% 29.63 1003.5
13 06:55 Calm 10.00 Mostly Cloudy BKN150 BKN220 55.9 47.5 73% 29.63 1003.5
13 05:55 Calm 10.00 Overcast OVC170 54.9 47.5 76% 29.63 1003.5
13 04:56 Calm 10.00 Mostly Cloudy BKN120 52.9 44.8 74% 29.63 1003.5
13 03:55 Calm 10.00 Mostly Cloudy BKN110 55.6 43.2 68.9 54.3 63% 29.61 1002.9
13 02:55 Calm 10.00 Mostly Cloudy BKN120 55.6 45.5 69% 29.6 1002.5
13 01:55 Calm 10.00 Mostly Cloudy BKN130 56.1 44.6 65% 29.61 1002.9
13 00:56 SE 3 10.00 Mostly Cloudy BKN180 54.3 45.1 71% 29.6 1002.6
12 23:55 S 2 10.00 Mostly Cloudy FEW120 BKN180 BKN220 61.9 40.8 46% 29.59 1002.1
12 22:55 SE 12 10.00 Mostly Cloudy SCT120 BKN180 BKN220 66.2 39.9 38% 29.57 1001.5
12 21:55 SE 12 10.00 Mostly Cloudy FEW120 BKN180 BKN220 68.5 40.5 78.3 68.5 36% 29.58 1001.8
12 20:55 E 15 10.00 Overcast FEW100 BKN160 OVC210 72 39.7 31% 29.58 1001.8
12 19:55 E 15 10.00 Mostly Cloudy FEW090 BKN150 BKN200 75.6 39.2 27% 77 29.59 1002.1
12 18:55 SE 12 G 21 10.00 Mostly Cloudy FEW080 SCT150 BKN200 77.2 39.6 26% 77 29.6 1002.5
12 17:55 SE 17 G 28 10.00 Partly Cloudy FEW080 SCT200 77.7 40.1 26% 78 29.62 1003.2
12 16:55 SE 20 10.00 Mostly Cloudy FEW080 BKN200 77.4 40.8 27% 78 29.65 1004.3
12 15:55 E 16 10.00 Fair CLR 77.2 43.3 77.5 68.9 30% 78 29.67 1004.9
12 14:55 E 10 10.00 Fair CLR 76.8 44.8 32% 78 29.69 1005.6
12 13:55 SE 15 10.00 Fair CLR 76.1 43.2 31% 77 29.71 1006.3
12 12:55 NE 16 10.00 Fair CLR 74.5 42.6 32% 29.74 1007.2
12 11:55 E 10 10.00 Fair CLR 73.6 44.2 35% 29.76 1007.9
12 11:03 E 14 10.00 Fair CLR 70.5 44.4 39% 29.78 1008.6
12 10:55 E 14 10.00 Fair CLR 70.5 44.4 39% 29.78 1008.6
12 09:55 N 3 10.00 Fair CLR 69.1 45 69.1 51.4 42% 29.8 1009.3
12 08:55 N 5 10.00 Fair CLR 63.7 52.2 66% 29.82 1010.0
12 07:55 Calm 10.00 Fair CLR 59 51.1 75% 29.84 1010.7
12 06:55 Calm 10.00 A Few Clouds FEW100 55.9 49.8 80% 29.85 1011.1
12 05:55 Calm 10.00 A Few Clouds FEW100 53.8 50 87% 29.86 1011.5
12 04:55 Calm 10.00 Partly Cloudy SCT110 53.1 50.2 90% 29.87 1011.8
12 03:55 SE 3 10.00 Mostly Cloudy BKN110 53.1 50.5 63.9 52.7 91% 29.87 1011.8
Date Time (akdt) Wind (mph) Vis. (mi.) Weather Sky Cond. Air Dwpt Max. Min. Relative Humidity Wind Chill (°F) Heat Index (°F) altimeter (in) sea level (mb) 1 hr 3 hr 6 hr
6 hour
Temperature (ºF) Pressure Precipitation (in)